Location: Epalinges
(46.5518°N, 6.6683°E)
Time: 00:59:24
(UTC+00:00)

CZ-4C R/B - Visible Passes

Search period start: 24 October 2021 00:00
Search period end: 03 November 2021 00:00
Orbit: 600 x 1402 km, 63.4° (Epoch: 23 October)

Date Brightness Start Highest point End Pass type
(mag) Time Alt. Az. Time Alt. Az. Time Alt. Az.
24 Oct 5.3 00:18:34 11° NE 00:18:34 11° NE 00:19:09 10° NE visible
24 Oct 4.3 02:03:47 28° N 02:05:20 30° NNE 02:12:07 10° E visible
24 Oct 3.0 03:49:00 17° NW 03:54:55 81° NE 04:03:22 10° SE visible
25 Oct 5.0 00:51:37 17° NE 00:51:37 17° NE 00:54:30 10° ENE visible
25 Oct 3.8 02:36:50 33° N 02:39:26 45° NE 02:47:13 10° ESE visible
25 Oct 3.0 04:22:04 14° NW 04:28:25 62° WSW 04:36:45 10° SSE visible
26 Oct 4.6 01:24:49 26° NE 01:24:49 26° NE 01:30:00 10° E visible
26 Oct 3.1 03:10:03 38° NNW 03:13:15 71° NE 03:21:38 10° SE visible
26 Oct 3.7 04:55:17 11° NW 05:01:41 35° WSW 05:09:06 10° S visible
26 Oct 3.9 18:33:40 10° S 18:34:14 13° S 18:34:14 13° S visible
27 Oct 4.0 01:58:12 39° NE 01:58:12 39° NE 02:05:13 10° ESE visible
27 Oct 2.9 03:43:27 36° NW 03:46:49 71° SW 03:55:14 10° SSE visible
27 Oct 4.3 05:29:47 10° WNW 05:34:39 18° WSW 05:39:51 10° SW visible
27 Oct 3.4 19:06:03 10° SSW 19:07:56 25° SSW 19:07:56 25° SSW visible
28 Oct 5.2 00:46:29 14° ENE 00:46:29 14° ENE 00:47:52 10° ENE visible
28 Oct 3.2 02:31:45 63° NE 02:31:45 63° NE 02:39:50 10° SE visible
28 Oct 3.4 04:17:00 29° WNW 04:20:09 40° WSW 04:27:53 10° S visible
28 Oct 3.0 17:52:33 10° SSE 17:56:18 24° ESE 17:56:18 24° ESE visible
28 Oct 3.7 19:39:24 10° WSW 19:41:33 27° WSW 19:41:33 27° WSW visible
29 Oct 4.8 01:20:12 21° E 01:20:12 21° E 01:23:12 10° E visible
29 Oct 2.9 03:05:28 80° SSW 03:05:28 80° SSW 03:13:40 10° SSE visible
29 Oct 4.1 04:50:44 19° W 04:53:12 22° WSW 04:59:10 10° SSW visible
29 Oct 2.0 18:24:36 10° SSW 18:29:17 57° ESE 18:29:47 54° E visible
29 Oct 4.4 20:13:29 10° W 20:15:02 19° W 20:15:02 19° W visible
30 Oct 4.4 01:54:04 29° ESE 01:54:04 29° ESE 01:57:58 10° ESE visible
30 Oct 3.3 03:39:21 46° SW 03:39:21 46° SW 03:46:35 10° S visible
30 Oct 3.3 17:11:36 10° SSE 17:14:59 19° ESE 17:17:53 13° ENE visible
30 Oct 2.2 18:57:44 10° SW 19:02:36 68° NW 19:03:07 64° N visible
30 Oct 5.0 20:48:04 10° WNW 20:48:21 11° WNW 20:48:21 11° WNW visible
31 Oct 4.3 02:28:03 31° SE 02:28:03 31° SE 02:32:02 10° SE visible
31 Oct 4.1 04:13:20 24° SW 04:13:20 24° SW 04:18:17 10° SSW visible
31 Oct 2.3 17:43:13 10° S 17:47:45 45° ESE 17:51:05 21° ENE visible
31 Oct 3.3 19:31:38 10° WSW 19:36:18 37° NW 19:36:18 37° NW visible
01 Nov 4.4 03:02:04 24° S 03:02:04 24° S 03:05:12 10° SSE visible
01 Nov 4.9 04:47:22 10° SW 04:47:22 10° SW 04:47:28 10° SW visible
01 Nov 2.0 18:16:07 10° SW 18:20:58 82° NW 18:24:07 28° NE visible
01 Nov 4.2 20:06:07 10° WNW 20:09:20 23° NW 20:09:20 23° NW visible
02 Nov 4.9 03:36:06 14° SSW 03:36:06 14° SSW 03:37:16 10° S visible
02 Nov 2.6 17:01:55 10° S 17:06:17 36° ESE 17:11:25 10° NE visible
02 Nov 3.1 18:49:50 10° WSW 18:54:38 43° NW 18:57:02 29° NNE visible
02 Nov 4.9 20:40:53 10° WNW 20:42:15 14° NW 20:42:15 14° NW visible
